Weather History for Evanston, WY

Change the Weather History Date:

Thursday, March 21, 2013

  Actual Average Record
Temperature  
Mean Temperature 26 °F 32 °F  
Max Temperature 33 °F 42 °F 64 °F (2004)
Min Temperature 19 °F 23 °F 19 °F (2013)
Degree Days  
Heating Degree Days 39 33  
Month to date heating degree days 672 750  
Since 1 July heating degree days 6267 6758  
Cooling Degree Days 0 0  
Month to date cooling degree days 0 0  
Year to date cooling degree days 0 0  
Moisture  
Dew Point 24 °F    
Average Humidity 73    
Maximum Humidity 96    
Minimum Humidity 49    
Precipitation  
Precipitation 0.10 in 0.03 in 0.10 in (2013)
Month to date precipitation 0.27 0.47  
Year to date precipitation 0.74 1.62  
Sea Level Pressure  
Sea Level Pressure 29.79 in    
Wind  
Wind Speed 16 mph (WSW)    
Max Wind Speed 32 mph    
Max Gust Speed 40 mph    
Visibility 5 miles    
Events Fog , Snow , Thunderstorm    
T = Trace of Precipitation, MM = Missing Value Source: NWS Daily Summary

Daily Weather History Graph

Daily Weather History Graph

Search for Another Location

Airport:

Trip Planner

Search our weather history database for the weather conditions in past years. The results will help you decide how hot, cold, wet, or windy it might be!

Date:

Astronomy

Mar. 21, 2013 Rise Set
Actual Time 7:25 AM MDT 7:37 PM MDT
Civil Twilight 6:57 AM MDT 8:05 PM MDT
Nautical Twilight 6:25 AM MDT 8:37 PM MDT
Astronomical Twilight 5:52 AM MDT 9:10 PM MDT
Moon 2:08 PM MDT (3/21) 3:52 AM MDT (3/21)
Length of Visible Light 13h 07m
Length of Day
12h 12m
Waxing Gibbous, 69% of the Moon is Illuminated
Mar 21
Waxing Gibbous
Mar 27
Full
Apr 2
Last Quarter
Apr 10
New
Apr 18
First Quarter

Hourly Weather History & Observations

Time (MDT) Temp. Windchill Dew Point Humidity Pressure Visibility Wind Dir Wind Speed Gust Speed Precip Events Conditions
12:28 AM 33.8 °F 22.2 °F 32.0 °F 93% 29.79 in 5.0 mi SW 20.7 mph 27.6 mph 0.01 in Snow Light Snow
12:44 AM 33.8 °F 23.2 °F 32.0 °F 93% 29.77 in 10.0 mi SSW 17.3 mph 21.9 mph 0.01 in   Mostly Cloudy
12:53 AM 34.0 °F 24.6 °F 32.0 °F 92% 29.72 in 10.0 mi SSW 13.8 mph 21.9 mph 0.01 in   Scattered Clouds
1:09 AM 33.8 °F 23.5 °F 30.2 °F 87% 29.78 in 2.5 mi SW 16.1 mph - N/A   Mostly Cloudy
1:23 AM 33.8 °F 23.5 °F 32.0 °F 93% 29.77 in 10.0 mi SW 16.1 mph - N/A   Mostly Cloudy
1:31 AM 33.8 °F 24.3 °F 32.0 °F 93% 29.77 in 10.0 mi SW 13.8 mph - N/A   Overcast
1:44 AM 33.8 °F 25.8 °F 32.0 °F 93% 29.76 in 1.8 mi WSW 10.4 mph - 0.01 in Snow Light Snow
1:49 AM 33.8 °F 26.4 °F 32.0 °F 93% 29.74 in 1.0 mi SSW 9.2 mph - 0.02 in Snow Light Snow
1:53 AM 33.1 °F 24.9 °F 32.0 °F 96% 29.69 in 1.0 mi SSW 10.4 mph - 0.02 in Snow Light Snow
1:58 AM 33.8 °F 26.4 °F 32.0 °F 93% 29.74 in 0.8 mi SSW 9.2 mph - 0.00 in Snow Light Snow
2:10 AM 33.8 °F 25.3 °F 32.0 °F 93% 29.74 in 1.0 mi South 11.5 mph - 0.00 in Snow Light Snow
2:14 AM 33.8 °F 27.0 °F 32.0 °F 93% 29.74 in 2.0 mi SSW 8.1 mph 18.4 mph 0.01 in Snow Light Snow
2:18 AM 33.8 °F 27.0 °F 32.0 °F 93% 29.74 in 3.0 mi SW 8.1 mph 18.4 mph 0.01 in Snow Light Snow
2:27 AM 33.8 °F 29.6 °F 32.0 °F 93% 29.73 in 9.0 mi South 4.6 mph - 0.01 in   Overcast
2:43 AM 33.8 °F 22.2 °F 30.2 °F 87% 29.75 in 6.0 mi WNW 20.7 mph 26.5 mph 0.01 in Snow Light Snow
2:45 AM 33.8 °F 23.5 °F 30.2 °F 87% 29.76 in 1.8 mi WNW 16.1 mph 26.5 mph 0.02 in Snow Light Snow
2:48 AM 33.8 °F 22.8 °F 30.2 °F 87% 29.76 in 0.8 mi WNW 18.4 mph 26.5 mph 0.03 in Snow Light Snow
2:51 AM 33.8 °F 23.5 °F 30.2 °F 87% 29.76 in 0.5 mi West 16.1 mph 26.5 mph 0.05 in Fog , Snow , Thunderstorm Thunderstorms and Snow
2:53 AM 33.1 °F 23.0 °F 30.9 °F 92% 29.68 in 0.2 mi West 15.0 mph - 0.06 in Fog , Snow , Thunderstorm Heavy Thunderstorms and Snow
3:01 AM 33.8 °F 22.5 °F 32.0 °F 93% 29.75 in 0.8 mi West 19.6 mph 25.3 mph 0.00 in Snow , Thunderstorm Light Thunderstorms and Snow
3:05 AM 33.8 °F 22.8 °F 30.2 °F 87% 29.75 in 1.2 mi West 18.4 mph 25.3 mph 0.00 in Snow Light Snow
3:15 AM 33.8 °F 23.5 °F 30.2 °F 87% 29.75 in 1.0 mi WSW 16.1 mph - 0.01 in Snow Light Snow
3:32 AM 33.8 °F 26.4 °F 32.0 °F 93% 29.74 in 1.8 mi SW 9.2 mph - 0.01 in Snow Light Snow
3:38 AM 32.0 °F 25.6 °F 32.0 °F 100% 29.73 in 0.8 mi SW 6.9 mph - 0.01 in Snow Light Snow
3:50 AM 32.0 °F 24.8 °F 30.2 °F 93% 29.71 in 1.0 mi SW 8.1 mph - 0.01 in Snow Light Snow
3:51 AM 32.0 °F 24.8 °F 30.9 °F 96% 29.63 in 1.0 mi SW 8.1 mph - 0.01 in Snow Light Snow
3:54 AM 32.0 °F 24.8 °F 30.2 °F 93% 29.71 in 2.5 mi SW 8.1 mph - 0.00 in Snow Light Snow
4:01 AM 32.0 °F 26.4 °F 30.2 °F 93% 29.71 in 7.0 mi WSW 5.8 mph - 0.00 in Snow Light Snow
4:10 AM 32.0 °F 24.2 °F 30.2 °F 93% 29.72 in 9.0 mi WSW 9.2 mph - 0.00 in   Mostly Cloudy
4:53 AM 32.0 °F 27.5 °F 28.9 °F 88% 29.65 in 10.0 mi WSW 4.6 mph - 0.00 in   Mostly Cloudy
5:04 AM 32.0 °F 24.8 °F 28.4 °F 87% 29.71 in 10.0 mi WSW 8.1 mph - N/A   Mostly Cloudy
5:53 AM 32.0 °F 21.6 °F 27.0 °F 82% 29.67 in 10.0 mi West 15.0 mph 20.7 mph 0.00 in   Overcast
6:14 AM 30.2 °F 21.3 °F 26.6 °F 86% 29.73 in 10.0 mi NW 10.4 mph - N/A   Overcast
6:43 AM 28.4 °F 15.8 °F 24.8 °F 86% 29.74 in 10.0 mi North 18.4 mph 24.2 mph N/A   Overcast
6:53 AM 27.0 °F 12.2 °F 25.0 °F 92% 29.72 in 3.0 mi NNW 24.2 mph 31.1 mph 0.00 in Snow Light Snow
6:59 AM 26.6 °F 11.7 °F 24.8 °F 93% 29.76 in 2.5 mi North 24.2 mph 32.2 mph 0.00 in Snow Light Snow
7:14 AM 24.8 °F 7.9 °F 21.2 °F 86% 29.77 in 1.5 mi North 29.9 mph 35.7 mph 0.00 in Snow Light Snow
7:19 AM 24.8 °F 9.3 °F 21.2 °F 86% 29.78 in 0.8 mi North 24.2 mph 35.7 mph 0.00 in Snow Light Snow
7:25 AM 24.8 °F 10.0 °F 21.2 °F 86% 29.80 in 0.5 mi NNW 21.9 mph 32.2 mph 0.00 in Fog , Snow Snow
7:32 AM 24.8 °F 10.7 °F 21.2 °F 86% 29.81 in 1.0 mi NNW 19.6 mph - 0.00 in Snow Light Snow
7:37 AM 24.8 °F 12.4 °F 21.2 °F 86% 29.80 in 2.0 mi NNW 15.0 mph 25.3 mph 0.00 in Snow Light Snow
7:43 AM 24.8 °F 12.4 °F 21.2 °F 86% 29.81 in 1.5 mi NW 15.0 mph - 0.00 in Snow Light Snow
7:50 AM 24.8 °F 14.0 °F 21.2 °F 86% 29.82 in 0.5 mi NW 11.5 mph - 0.00 in Fog , Snow Snow
7:53 AM 24.1 °F 13.7 °F 21.9 °F 91% 29.82 in 0.5 mi WNW 10.4 mph - 0.00 in Fog , Snow Snow
8:12 AM 24.8 °F 20.5 °F 21.2 °F 86% 29.80 in 0.5 mi WNW 3.5 mph - 0.00 in Fog , Snow Snow
8:21 AM 24.8 °F 20.5 °F 21.2 °F 86% 29.80 in 0.5 mi WSW 3.5 mph - 0.01 in Fog , Snow Snow
8:29 AM 24.8 °F 14.6 °F 21.2 °F 86% 29.81 in 1.0 mi WSW 10.4 mph - 0.01 in Snow Light Snow
8:32 AM 24.8 °F 14.6 °F 21.2 °F 86% 29.81 in 2.5 mi WSW 10.4 mph - 0.01 in Snow Light Snow
8:38 AM 24.8 °F 12.9 °F 21.2 °F 86% 29.81 in 7.0 mi WSW 13.8 mph - 0.01 in   Overcast
8:44 AM 24.8 °F 12.4 °F 21.2 °F 86% 29.81 in 9.0 mi SW 15.0 mph - 0.01 in   Overcast
8:53 AM 25.0 °F 12.2 °F 21.9 °F 88% 29.81 in 8.0 mi WSW 16.1 mph - 0.01 in Snow Light Snow
9:50 AM 24.8 °F 13.4 °F 19.4 °F 80% 29.82 in 10.0 mi West 12.7 mph 23.0 mph 0.00 in   Scattered Clouds
9:53 AM 26.1 °F 12.3 °F 19.0 °F 75% 29.83 in 10.0 mi West 19.6 mph 24.2 mph 0.00 in   Scattered Clouds
10:42 AM 24.8 °F 11.1 °F 15.8 °F 69% 29.84 in 10.0 mi West 18.4 mph 23.0 mph N/A   Mostly Cloudy
10:53 AM 24.1 °F 12.0 °F 16.0 °F 71% 29.87 in 10.0 mi West 13.8 mph - N/A   Mostly Cloudy
11:53 AM 27.0 °F 13.5 °F 15.1 °F 61% 29.87 in 10.0 mi West 19.6 mph 27.6 mph N/A   Clear
12:53 PM 28.0 °F 13.9 °F 15.1 °F 58% 29.87 in 10.0 mi West 23.0 mph - N/A   Clear
1:53 PM 28.0 °F 13.6 °F 14.0 °F 56% 29.88 in 10.0 mi West 24.2 mph 31.1 mph N/A   Clear
2:53 PM 30.0 °F 15.7 °F 16.0 °F 56% 29.87 in 10.0 mi WSW 26.5 mph 35.7 mph N/A   Scattered Clouds
3:53 PM 30.0 °F 16.6 °F 16.0 °F 56% 29.89 in 10.0 mi WSW 23.0 mph 38.0 mph N/A   Clear
4:53 PM 27.0 °F 13.5 °F 18.0 °F 69% 29.92 in 6.0 mi WSW 19.6 mph 28.8 mph 0.00 in Snow Light Snow
5:26 PM 26.6 °F 12.4 °F 15.8 °F 64% 29.90 in 10.0 mi WSW 21.9 mph 29.9 mph 0.00 in   Overcast
5:53 PM 28.9 °F 16.9 °F 12.9 °F 51% 29.91 in 10.0 mi WSW 17.3 mph 28.8 mph 0.00 in   Overcast
6:53 PM 26.1 °F 10.7 °F 10.9 °F 53% 29.94 in 10.0 mi WSW 25.3 mph - N/A   Clear
7:53 PM 23.0 °F 8.0 °F 10.9 °F 60% 29.98 in 10.0 mi WSW 20.7 mph - N/A   Clear
8:53 PM 21.0 °F 10.6 °F 10.9 °F 65% 30.00 in 10.0 mi SSW 9.2 mph - N/A   Clear
9:53 PM 19.9 °F 8.6 °F 10.0 °F 65% 29.99 in 10.0 mi SW 10.4 mph - N/A   Clear
10:53 PM 19.9 °F 11.1 °F 10.0 °F 65% 30.01 in 10.0 mi SSW 6.9 mph - N/A   Clear
11:53 PM 19.9 °F 7.9 °F 9.0 °F 62% 29.98 in 10.0 mi West 11.5 mph - N/A   Clear